Location: Oklahoma City
(35.4680°N, 97.5160°W)
Time: 20:46:35
(UTC-05:00)

ISS - All Passes

Search period start: 26 June 2017 00:00
Search period end: 06 July 2017 00:00
Orbit: 401 x 408 km, 51.6° (Epoch: 27 June)

Date Brightness Start Highest point End Pass type
(mag) Time Alt. Az. Time Alt. Az. Time Alt. Az.
26 Jun - 08:24:19 10° SSW 08:27:25 43° SE 08:30:33 10° ENE daylight
26 Jun - 10:01:38 10° WNW 10:04:03 19° NNW 10:06:28 10° NNE daylight
26 Jun - 14:55:03 10° NNW 14:57:21 18° NNE 14:59:41 10° ENE daylight
26 Jun - 16:30:50 10° WNW 16:34:02 49° SW 16:37:14 10° SSE daylight
27 Jun - 07:32:54 10° S 07:35:22 20° SE 07:37:53 10° E daylight
27 Jun - 09:08:44 10° W 09:11:42 31° NW 09:14:41 10° NNE daylight
27 Jun - 14:03:41 10° N 14:04:55 12° NNE 14:06:08 10° NE daylight
27 Jun - 15:38:35 10° NW 15:41:54 74° NE 15:45:10 10° SE daylight
28 Jun - 08:16:12 10° WSW 08:19:26 63° NW 08:22:41 10° NE daylight
28 Jun - 09:55:41 10° NW 09:56:29 11° NNW 09:57:15 10° N daylight
28 Jun - 14:46:33 10° NNW 14:49:38 36° NE 14:52:42 10° ESE daylight
28 Jun - 16:23:36 10° W 16:25:55 18° SW 16:28:12 10° S daylight
29 Jun - 07:24:03 10° SW 07:27:14 58° SE 07:30:28 10° NE daylight
29 Jun - 09:01:51 10° WNW 09:03:59 16° NNW 09:06:06 10° NNE daylight
29 Jun - 13:54:42 10° NNW 13:57:17 21° NNE 13:59:52 10° E daylight
29 Jun - 15:30:46 10° WNW 15:33:51 37° SW 15:36:54 10° SSE daylight
30 Jun - 06:32:21 10° S 06:35:08 26° SE 06:37:56 10° ENE daylight
30 Jun - 08:08:46 10° W 08:11:34 26° NNW 08:14:23 10° NNE daylight
30 Jun - 13:03:07 10° N 13:04:49 13° NNE 13:06:32 10° ENE daylight
30 Jun - 14:38:23 10° NW 14:41:41 84° SW 14:44:58 10° SE daylight
01 Jul - 05:41:33 10° SSE 05:43:05 13° SE 05:44:38 10° E visible
01 Jul - 07:16:04 10° WSW 07:19:14 48° NW 07:22:25 10° NE daylight
01 Jul - 13:46:15 10° NW 13:49:26 45° NE 13:52:36 10° ESE daylight
01 Jul - 15:23:51 10° W 15:25:36 14° SW 15:27:22 10° SSW daylight
02 Jul - 06:23:44 10° SW 06:26:59 79° SE 06:30:15 10° NE daylight
02 Jul - 08:02:03 10° WNW 08:03:48 14° NNW 08:05:35 10° N daylight
02 Jul - 12:54:18 10° NNW 12:57:04 25° NNE 12:59:51 10° E daylight
02 Jul - 14:30:39 10° WNW 14:33:32 28° SW 14:36:23 10° SSE daylight
03 Jul - 05:31:49 10° SSW 05:34:47 34° SE 05:37:48 10° ENE visible
03 Jul - 07:08:45 10° W 07:11:19 21° NNW 07:13:56 10° NNE daylight
03 Jul - 12:02:33 10° N 12:04:37 15° NNE 12:06:40 10° ENE daylight
03 Jul - 13:38:06 10° NW 13:41:22 63° SW 13:44:36 10° SE daylight
04 Jul - 04:40:32 10° S 04:42:41 17° SE 04:44:50 10° E visible
04 Jul - 06:15:52 10° WSW 06:18:56 37° NW 06:22:00 10° NNE daylight
04 Jul - 11:11:30 10° NNE 11:12:03 10° NNE 11:12:37 10° NNE daylight
04 Jul - 12:45:51 10° NW 12:49:06 59° NE 12:52:21 10° ESE daylight
04 Jul - 14:24:28 10° WSW 14:25:10 11° SW 14:25:52 10° SW daylight
05 Jul - 05:23:21 10° SW 05:26:36 79° NW 05:29:52 10° NE visible
05 Jul - 07:02:14 10° NW 07:03:32 12° NNW 07:04:50 10° N daylight
05 Jul - 11:53:47 10° NNW 11:56:44 30° NE 11:59:41 10° E daylight
05 Jul - 13:30:29 10° WNW 13:33:06 22° SW 13:35:41 10° S daylight
